Location: Pedholt
(56.0260°N, 10.2097°E)
Time: 06:08:45
(UTC+00:00)

ADEOS II - Pass Details

Date: 14 July 2020
Orbit: 799 x 801 km, 98.5° (Epoch: 14 August)

Event Time Altitude Azimuth Distance (km) Brightness Sun altitude
Rises 01:14:40 0° 19° (NNE) 3,326 7.6 -8.9°
Reaches altitude 10° 01:17:09 10° 27° (NNE) 2,391 6.3 -8.8°
Maximum altitude 01:22:08 41° 97° (E) 1,154 3.1 -8.5°
Drops below altitude 10° 01:27:04 10° 167° (SSE) 2,373 4.1 -8.2°
Enters shadow 01:28:38 - 173° (S) 2,953 4.5 -8.1°
